Location: Ferchesar
(52.6477°N, 12.4298°E)
Time: 18:29:44
(UTC+02:00)

Tiros 1 despin weight - Pass Details

Date: 13 March 2021
Orbit: 593 x 641 km, 48.2° (Epoch: 17 April)

Event Time Altitude Azimuth Distance (km) Brightness Sun altitude
Rises 19:47:54 0° 212° (SSW) 2,836 ? -15.3°
Reaches altitude 10° 19:50:38 10° 195° (SSW) 1,944 ? -15.7°
Enters shadow 19:53:45 20° 151° (SSE) 1,411 ? -16.2°
